Time,TemperatureF,DewpointF,PressureIn,WindDirection,WindDirectionDegrees,WindSpeedMPH,WindSpeedGustMPH,Humidity,HourlyPrecipIn,Conditions,Clouds,dailyrainin,SoftwareType,DateUTC
2013-07-07 00:01:00,85.8,55.8,29.53,ESE,107,0.0,0.0,36,0.00,,,0.00,meteohub,2013-07-07 06:01:00,
2013-07-07 00:06:00,86.4,54.7,29.53,East,90,0.0,0.0,34,0.00,,,0.00,meteohub,2013-07-07 06:06:00,
2013-07-07 00:12:00,87.1,54.5,29.53,ENE,78,0.0,0.0,33,0.00,,,0.00,meteohub,2013-07-07 06:12:00,
2013-07-07 00:17:00,87.1,54.5,29.53,ENE,78,0.0,0.0,33,0.00,,,0.00,meteohub,2013-07-07 06:17:00,
2013-07-07 00:22:00,87.1,55.2,29.53,ENE,78,0.0,0.0,34,0.00,,,0.00,meteohub,2013-07-07 06:22:00,
2013-07-07 00:27:00,87.1,55.2,29.54,ENE,78,0.0,0.0,34,0.00,,,0.00,meteohub,2013-07-07 06:27:00,
2013-07-07 00:32:00,86.7,55.8,29.54,ENE,78,0.0,0.0,35,0.00,,,0.00,meteohub,2013-07-07 06:32:00,
2013-07-07 00:37:00,86.4,56.3,29.54,ENE,78,0.0,0.0,36,0.00,,,0.00,meteohub,2013-07-07 06:37:00,
2013-07-07 00:42:00,86.0,56.7,29.54,ENE,78,0.0,0.0,37,0.00,,,0.00,meteohub,2013-07-07 06:42:00,
2013-07-07 00:47:00,85.5,57.0,29.54,SSW,203,0.0,0.0,38,0.00,,,0.00,meteohub,2013-07-07 06:47:00,
2013-07-07 00:52:00,84.9,57.2,29.54,SSW,203,0.0,0.0,39,0.00,,,0.00,meteohub,2013-07-07 06:52:00,
2013-07-07 00:57:00,84.6,56.8,29.55,SSW,203,0.0,0.0,39,0.00,,,0.00,meteohub,2013-07-07 06:57:00,
2013-07-07 01:02:00,84.4,56.7,29.54,SSW,203,0.0,0.0,39,0.00,,,0.00,meteohub,2013-07-07 07:02:00,
2013-07-07 01:07:00,84.2,55.8,29.55,SSW,202,0.0,0.0,38,0.00,,,0.00,meteohub,2013-07-07 07:07:00,
2013-07-07 01:12:00,84.4,55.9,29.55,SSW,200,0.0,0.0,38,0.00,,,0.00,meteohub,2013-07-07 07:12:00,
2013-07-07 01:18:00,84.6,56.1,29.55,SSW,200,0.0,0.0,38,0.00,,,0.00,meteohub,2013-07-07 07:18:00,
2013-07-07 01:23:00,84.4,55.9,29.55,SSW,200,0.0,0.0,38,0.00,,,0.00,meteohub,2013-07-07 07:23:00,
2013-07-07 01:28:00,84.2,56.5,29.55,SSW,200,0.0,0.0,39,0.00,,,0.00,meteohub,2013-07-07 07:28:00,
2013-07-07 01:33:00,84.0,56.5,29.54,SSW,200,0.0,0.0,39,0.00,,,0.00,meteohub,2013-07-07 07:33:00,
2013-07-07 01:38:00,83.8,56.3,29.54,SSW,200,0.0,0.0,39,0.00,,,0.00,meteohub,2013-07-07 07:38:00,
2013-07-07 01:39:00,83.8,56.3,29.54,SSW,200,0.0,0.0,39,0.00,,,0.00,meteohub,2013-07-07 07:39:00,
2013-07-07 01:44:00,83.7,56.1,29.54,SSW,200,0.0,0.0,39,0.00,,,0.00,meteohub,2013-07-07 07:44:00,
2013-07-07 01:49:00,83.5,55.9,29.54,SSW,200,0.0,0.0,39,0.00,,,0.00,meteohub,2013-07-07 07:49:00,
2013-07-07 01:54:00,83.1,57.0,29.54,SSW,200,0.0,0.0,41,0.00,,,0.00,meteohub,2013-07-07 07:54:00,
2013-07-07 01:59:00,82.6,56.5,29.54,SSW,200,0.0,0.0,41,0.00,,,0.00,meteohub,2013-07-07 07:59:00,
2013-07-07 02:04:00,82.0,55.9,29.55,SSW,200,0.0,0.0,41,0.00,,,0.00,meteohub,2013-07-07 08:04:00,
2013-07-07 02:10:00,81.9,55.9,29.55,SSW,200,0.0,0.0,41,0.00,,,0.00,meteohub,2013-07-07 08:10:00,
2013-07-07 02:15:00,81.5,55.6,29.55,SSW,200,0.0,0.0,41,0.00,,,0.00,meteohub,2013-07-07 08:15:00,
2013-07-07 02:20:00,81.3,56.1,29.55,SSW,200,0.0,0.0,42,0.00,,,0.00,meteohub,2013-07-07 08:20:00,
2013-07-07 02:25:00,81.3,56.1,29.56,SSW,200,0.0,0.0,42,0.00,,,0.00,meteohub,2013-07-07 08:25:00,
2013-07-07 02:30:00,81.7,56.3,29.56,SSW,201,0.0,0.0,42,0.00,,,0.00,meteohub,2013-07-07 08:30:00,
2013-07-07 02:35:00,82.0,55.9,29.56,NW,307,0.0,0.0,41,0.00,,,0.00,meteohub,2013-07-07 08:35:00,
2013-07-07 02:40:00,82.6,55.0,29.56,West,273,0.0,0.0,39,0.00,,,0.00,meteohub,2013-07-07 08:40:00,
2013-07-07 02:46:00,83.3,55.0,29.56,West,266,0.0,0.0,38,0.00,,,0.00,meteohub,2013-07-07 08:46:00,
2013-07-07 02:51:00,83.5,56.7,29.56,West,268,0.0,0.0,40,0.00,,,0.00,meteohub,2013-07-07 08:51:00,
2013-07-07 02:56:00,83.1,57.0,29.56,West,267,0.0,0.0,41,0.00,,,0.00,meteohub,2013-07-07 08:56:00,
2013-07-07 03:01:00,82.8,57.4,29.56,West,267,0.0,0.0,42,0.00,,,0.00,meteohub,2013-07-07 09:01:00,
2013-07-07 03:06:00,82.6,57.2,29.56,West,268,0.0,0.0,42,0.00,,,0.00,meteohub,2013-07-07 09:06:00,
2013-07-07 03:11:00,82.4,57.7,29.56,West,268,0.0,0.0,43,0.00,,,0.00,meteohub,2013-07-07 09:11:00,
2013-07-07 03:17:00,82.0,58.6,29.56,West,272,0.0,0.0,45,0.00,,,0.00,meteohub,2013-07-07 09:17:00,
2013-07-07 03:22:00,81.9,58.5,29.56,West,271,0.0,0.0,45,0.00,,,0.00,meteohub,2013-07-07 09:22:00,
2013-07-07 03:27:00,81.3,58.6,29.56,West,271,0.0,0.0,46,0.00,,,0.00,meteohub,2013-07-07 09:27:00,
2013-07-07 03:32:00,81.1,59.0,29.56,West,271,0.0,0.0,47,0.00,,,0.00,meteohub,2013-07-07 09:32:00,
2013-07-07 03:37:00,80.8,58.6,29.55,West,271,0.0,0.0,47,0.00,,,0.00,meteohub,2013-07-07 09:37:00,
2013-07-07 03:42:00,80.6,59.2,29.55,West,271,0.0,0.0,48,0.00,,,0.00,meteohub,2013-07-07 09:42:00,
2013-07-07 03:47:00,80.4,59.0,29.55,West,271,0.0,0.0,48,0.00,,,0.00,meteohub,2013-07-07 09:47:00,
2013-07-07 03:52:00,80.2,58.8,29.54,West,271,0.0,0.0,48,0.00,,,0.00,meteohub,2013-07-07 09:52:00,
2013-07-07 03:58:00,80.2,58.8,29.54,West,271,0.0,0.0,48,0.00,,,0.00,meteohub,2013-07-07 09:58:00,
2013-07-07 04:03:00,80.1,59.2,29.54,West,271,0.0,0.0,49,0.00,,,0.00,meteohub,2013-07-07 10:03:00,
2013-07-07 04:08:00,79.9,56.7,29.53,West,271,0.0,0.0,45,0.00,,,0.00,meteohub,2013-07-07 10:08:00,
2013-07-07 04:13:00,80.2,55.8,29.53,West,271,0.0,0.0,43,0.00,,,0.00,meteohub,2013-07-07 10:13:00,
2013-07-07 04:18:00,80.6,55.4,29.53,West,271,0.0,0.0,42,0.00,,,0.00,meteohub,2013-07-07 10:18:00,
2013-07-07 04:23:00,81.0,55.0,29.54,West,271,0.0,0.0,41,0.00,,,0.00,meteohub,2013-07-07 10:23:00,
2013-07-07 04:28:00,81.5,54.9,29.54,West,271,0.0,0.0,40,0.00,,,0.00,meteohub,2013-07-07 10:28:00,
2013-07-07 04:34:00,81.9,55.2,29.54,West,271,0.0,0.0,40,0.00,,,0.00,meteohub,2013-07-07 10:34:00,
2013-07-07 04:39:00,82.0,55.4,29.54,West,271,0.0,0.0,40,0.00,,,0.00,meteohub,2013-07-07 10:39:00,
2013-07-07 04:44:00,82.0,55.4,29.53,West,271,0.0,0.0,40,0.00,,,0.00,meteohub,2013-07-07 10:44:00,
2013-07-07 04:49:00,82.0,55.4,29.54,West,271,0.0,0.0,40,0.00,,,0.00,meteohub,2013-07-07 10:49:00,
2013-07-07 04:54:00,82.0,55.9,29.54,West,271,0.0,0.0,41,0.00,,,0.00,meteohub,2013-07-07 10:54:00,
2013-07-07 05:00:00,81.9,56.5,29.54,West,271,0.0,0.0,42,0.00,,,0.00,meteohub,2013-07-07 11:00:00,
2013-07-07 05:05:00,81.7,57.0,29.54,West,271,0.0,0.0,43,0.00,,,0.00,meteohub,2013-07-07 11:05:00,
2013-07-07 05:10:00,81.3,56.7,29.54,West,271,0.0,0.0,43,0.00,,,0.00,meteohub,2013-07-07 11:10:00,
2013-07-07 05:15:00,81.1,57.2,29.54,West,271,0.0,0.0,44,0.00,,,0.00,meteohub,2013-07-07 11:15:00,
2013-07-07 05:20:00,81.0,57.6,29.54,West,271,0.0,0.0,45,0.00,,,0.00,meteohub,2013-07-07 11:20:00,
2013-07-07 05:26:00,80.6,57.9,29.55,West,271,0.0,0.0,46,0.00,,,0.00,meteohub,2013-07-07 11:26:00,
2013-07-07 05:31:00,80.2,58.1,29.55,West,271,0.0,0.0,47,0.00,,,0.00,meteohub,2013-07-07 11:31:00,
2013-07-07 05:36:00,79.9,58.5,29.55,West,271,0.0,0.0,48,0.00,,,0.00,meteohub,2013-07-07 11:36:00,
2013-07-07 05:41:00,79.3,58.5,29.55,West,271,0.0,0.0,49,0.00,,,0.00,meteohub,2013-07-07 11:41:00,
2013-07-07 05:46:00,79.2,58.3,29.55,West,271,0.0,0.0,49,0.00,,,0.00,meteohub,2013-07-07 11:46:00,
2013-07-07 05:51:00,78.8,58.6,29.55,West,271,0.0,0.0,50,0.00,,,0.00,meteohub,2013-07-07 11:51:00,
2013-07-07 05:57:00,78.4,58.3,29.55,West,271,0.0,0.0,50,0.00,,,0.00,meteohub,2013-07-07 11:57:00,
2013-07-07 06:02:00,78.3,58.6,29.56,West,271,0.0,0.0,51,0.00,,,0.00,meteohub,2013-07-07 12:02:00,
2013-07-07 06:07:00,78.1,58.5,29.56,West,271,0.0,0.0,51,0.00,,,0.00,meteohub,2013-07-07 12:07:00,
2013-07-07 06:12:00,78.1,58.5,29.56,West,271,0.0,0.0,51,0.00,,,0.00,meteohub,2013-07-07 12:12:00,
2013-07-07 06:17:00,78.1,59.0,29.56,West,271,0.0,0.0,52,0.00,,,0.00,meteohub,2013-07-07 12:17:00,
2013-07-07 06:22:00,78.1,59.5,29.57,West,271,0.0,0.0,53,0.00,,,0.00,meteohub,2013-07-07 12:22:00,
2013-07-07 06:27:00,77.9,59.4,29.57,West,272,0.0,0.0,53,0.00,,,0.00,meteohub,2013-07-07 12:27:00,
2013-07-07 06:32:00,77.7,59.7,29.57,West,272,0.0,0.0,54,0.00,,,0.00,meteohub,2013-07-07 12:32:00,
2013-07-07 06:37:00,77.7,59.7,29.57,West,272,0.0,0.0,54,0.00,,,0.00,meteohub,2013-07-07 12:37:00,
2013-07-07 06:42:00,77.5,59.5,29.57,West,272,0.0,0.0,54,0.00,,,0.00,meteohub,2013-07-07 12:42:00,
2013-07-07 06:47:00,77.5,59.5,29.57,West,272,0.0,0.0,54,0.00,,,0.00,meteohub,2013-07-07 12:47:00,
2013-07-07 06:52:00,77.5,59.5,29.57,West,272,0.0,0.0,54,0.00,,,0.00,meteohub,2013-07-07 12:52:00,
2013-07-07 06:57:00,77.5,59.5,29.57,West,272,0.0,0.0,54,0.00,,,0.00,meteohub,2013-07-07 12:57:00,
2013-07-07 07:03:00,77.5,59.0,29.58,West,272,0.0,0.0,53,0.00,,,0.00,meteohub,2013-07-07 13:03:00,
2013-07-07 07:08:00,77.5,59.0,29.58,West,272,0.0,0.0,53,0.00,,,0.00,meteohub,2013-07-07 13:08:00,
2013-07-07 07:13:00,77.4,58.8,29.58,West,272,0.0,0.0,53,0.00,,,0.00,meteohub,2013-07-07 13:13:00,
2013-07-07 07:18:00,77.4,59.4,29.58,West,272,0.0,0.0,54,0.00,,,0.00,meteohub,2013-07-07 13:18:00,
2013-07-07 07:23:00,77.4,58.8,29.58,West,272,0.0,0.0,53,0.00,,,0.00,meteohub,2013-07-07 13:23:00,
2013-07-07 07:28:00,77.4,59.4,29.58,West,272,0.0,0.0,54,0.00,,,0.00,meteohub,2013-07-07 13:28:00,
2013-07-07 07:33:00,77.4,59.4,29.59,West,272,0.0,0.0,54,0.00,,,0.00,meteohub,2013-07-07 13:33:00,
2013-07-07 07:39:00,77.4,58.8,29.60,West,272,0.0,0.0,53,0.00,,,0.00,meteohub,2013-07-07 13:39:00,
2013-07-07 07:44:00,77.4,59.4,29.60,West,272,0.0,0.0,54,0.00,,,0.00,meteohub,2013-07-07 13:44:00,
2013-07-07 07:49:00,77.5,59.5,29.60,West,272,0.0,0.0,54,0.00,,,0.00,meteohub,2013-07-07 13:49:00,
2013-07-07 07:54:00,77.5,59.5,29.60,West,272,0.0,0.0,54,0.00,,,0.00,meteohub,2013-07-07 13:54:00,
2013-07-07 07:59:00,77.9,59.9,29.60,West,272,0.0,0.0,54,0.00,,,0.00,meteohub,2013-07-07 13:59:00,
2013-07-07 08:04:00,78.3,59.7,29.60,West,272,0.0,0.0,53,0.00,,,0.00,meteohub,2013-07-07 14:04:00,
2013-07-07 08:09:00,78.4,60.4,29.60,West,272,0.0,0.0,54,0.00,,,0.00,meteohub,2013-07-07 14:09:00,
2013-07-07 08:15:00,79.2,60.1,29.61,West,272,0.0,0.0,52,0.00,,,0.00,meteohub,2013-07-07 14:15:00,
2013-07-07 08:20:00,79.5,60.4,29.61,West,272,0.0,0.0,52,0.00,,,0.00,meteohub,2013-07-07 14:20:00,
2013-07-07 08:25:00,80.2,60.4,29.61,West,272,0.0,0.0,51,0.00,,,0.00,meteohub,2013-07-07 14:25:00,
2013-07-07 08:30:00,80.8,60.4,29.61,West,272,0.0,0.0,50,0.00,,,0.00,meteohub,2013-07-07 14:30:00,
2013-07-07 08:35:00,80.8,60.4,29.61,West,272,0.0,0.0,50,0.00,,,0.00,meteohub,2013-07-07 14:35:00,
2013-07-07 08:40:00,80.4,60.1,29.62,West,272,0.0,0.0,50,0.00,,,0.00,meteohub,2013-07-07 14:40:00,
2013-07-07 08:45:00,80.1,60.3,29.62,West,272,0.0,0.0,51,0.00,,,0.00,meteohub,2013-07-07 14:45:00,
2013-07-07 08:51:00,79.9,60.1,29.62,West,272,0.0,0.0,51,0.00,,,0.00,meteohub,2013-07-07 14:51:00,
2013-07-07 08:56:00,79.9,60.6,29.62,West,272,0.0,0.0,52,0.00,,,0.00,meteohub,2013-07-07 14:56:00,
2013-07-07 09:01:00,80.1,60.8,29.62,West,272,0.0,0.0,52,0.00,,,0.00,meteohub,2013-07-07 15:01:00,
2013-07-07 09:06:00,80.6,61.3,29.62,West,272,0.0,0.0,52,0.00,,,0.00,meteohub,2013-07-07 15:06:00,
2013-07-07 09:11:00,81.3,62.1,29.62,West,272,0.0,0.0,52,0.00,,,0.00,meteohub,2013-07-07 15:11:00,
2013-07-07 09:16:00,82.0,61.0,29.62,West,272,0.0,0.0,49,0.00,,,0.00,meteohub,2013-07-07 15:16:00,
2013-07-07 09:21:00,82.9,61.2,29.62,West,272,0.0,0.0,48,0.00,,,0.00,meteohub,2013-07-07 15:21:00,
2013-07-07 09:27:00,83.5,61.2,29.61,West,272,0.0,0.0,47,0.00,,,0.00,meteohub,2013-07-07 15:27:00,
2013-07-07 09:32:00,83.3,60.4,29.61,West,272,0.0,0.0,46,0.00,,,0.00,meteohub,2013-07-07 15:32:00,
2013-07-07 09:37:00,83.3,60.4,29.61,West,272,0.0,0.0,46,0.00,,,0.00,meteohub,2013-07-07 15:37:00,
2013-07-07 09:42:00,83.3,61.5,29.61,West,272,0.0,0.0,48,0.00,,,0.00,meteohub,2013-07-07 15:42:00,
2013-07-07 09:47:00,83.5,61.2,29.61,West,272,0.0,0.0,47,0.00,,,0.00,meteohub,2013-07-07 15:47:00,
2013-07-07 09:52:00,83.8,61.5,29.61,West,272,0.0,0.0,47,0.00,,,0.00,meteohub,2013-07-07 15:52:00,
2013-07-07 09:57:00,84.4,61.9,29.61,West,272,0.0,0.0,47,0.00,,,0.00,meteohub,2013-07-07 15:57:00,
2013-07-07 10:02:00,84.4,61.3,29.61,West,272,0.0,0.0,46,0.00,,,0.00,meteohub,2013-07-07 16:02:00,
2013-07-07 10:07:00,84.2,61.2,29.61,West,272,0.0,0.0,46,0.00,,,0.00,meteohub,2013-07-07 16:07:00,
2013-07-07 10:12:00,83.8,60.8,29.61,West,271,0.0,0.0,46,0.00,,,0.00,meteohub,2013-07-07 16:12:00,
2013-07-07 10:18:00,83.8,60.8,29.61,West,271,0.0,0.0,46,0.00,,,0.00,meteohub,2013-07-07 16:18:00,
2013-07-07 10:23:00,84.0,61.0,29.61,West,271,0.0,0.0,46,0.00,,,0.00,meteohub,2013-07-07 16:23:00,
2013-07-07 10:28:00,84.6,61.5,29.62,West,271,0.0,0.0,46,0.00,,,0.00,meteohub,2013-07-07 16:28:00,
2013-07-07 10:34:00,85.1,60.1,29.62,West,271,0.0,0.0,43,0.00,,,0.00,meteohub,2013-07-07 16:34:00,
2013-07-07 10:39:00,85.3,59.0,29.62,West,269,0.0,0.0,41,0.00,,,0.00,meteohub,2013-07-07 16:39:00,
2013-07-07 10:44:00,85.3,58.3,29.61,West,269,0.0,0.0,40,0.00,,,0.00,meteohub,2013-07-07 16:44:00,
2013-07-07 10:49:00,85.5,58.5,29.61,West,269,0.0,0.0,40,0.00,,,0.00,meteohub,2013-07-07 16:49:00,
2013-07-07 10:54:00,85.6,59.9,29.62,West,269,0.0,0.0,42,0.00,,,0.00,meteohub,2013-07-07 16:54:00,
2013-07-07 11:00:00,86.0,58.8,29.62,West,269,0.0,0.0,40,0.00,,,0.00,meteohub,2013-07-07 17:00:00,
2013-07-07 11:05:00,86.4,60.6,29.61,West,269,0.0,0.0,42,0.00,,,0.00,meteohub,2013-07-07 17:05:00,
2013-07-07 11:10:00,86.5,59.4,29.61,West,269,0.0,0.0,40,0.00,,,0.00,meteohub,2013-07-07 17:10:00,
2013-07-07 11:15:00,86.4,59.2,29.61,West,269,0.0,0.0,40,0.00,,,0.00,meteohub,2013-07-07 17:15:00,
2013-07-07 11:20:00,86.5,60.1,29.61,West,269,0.0,0.0,41,0.00,,,0.00,meteohub,2013-07-07 17:20:00,
2013-07-07 11:25:00,86.9,60.4,29.61,West,269,0.0,0.0,41,0.00,,,0.00,meteohub,2013-07-07 17:25:00,
2013-07-07 11:30:00,87.4,59.4,29.61,West,269,0.0,0.0,39,0.00,,,0.00,meteohub,2013-07-07 17:30:00,
2013-07-07 11:35:00,87.8,59.0,29.61,West,269,0.0,0.0,38,0.00,,,0.00,meteohub,2013-07-07 17:35:00,
2013-07-07 11:41:00,88.5,61.2,29.61,West,269,0.0,0.0,40,0.00,,,0.00,meteohub,2013-07-07 17:41:00,
2013-07-07 11:46:00,89.4,59.7,29.61,West,269,0.0,0.0,37,0.00,,,0.00,meteohub,2013-07-07 17:46:00,
2013-07-07 11:51:00,90.3,58.1,29.61,West,269,0.0,0.0,34,0.00,,,0.00,meteohub,2013-07-07 17:51:00,
2013-07-07 11:56:00,91.8,61.7,29.60,West,269,0.0,0.0,37,0.00,,,0.00,meteohub,2013-07-07 17:56:00,
2013-07-07 12:01:00,93.2,59.9,29.60,West,269,0.0,0.0,33,0.00,,,0.00,meteohub,2013-07-07 18:01:00,
2013-07-07 12:07:00,93.6,61.7,29.60,West,269,0.0,0.0,35,0.00,,,0.00,meteohub,2013-07-07 18:07:00,
2013-07-07 12:12:00,94.1,60.6,29.60,West,269,0.0,0.0,33,0.00,,,0.00,meteohub,2013-07-07 18:12:00,
2013-07-07 12:17:00,94.6,60.3,29.60,West,269,0.0,0.0,32,0.00,,,0.00,meteohub,2013-07-07 18:17:00,
2013-07-07 12:19:00,94.8,58.5,29.60,West,269,0.0,0.0,30,0.00,,,0.00,meteohub,2013-07-07 18:19:00,
2013-07-07 12:24:00,95.4,59.0,29.59,West,269,0.0,0.0,30,0.00,,,0.00,meteohub,2013-07-07 18:24:00,
2013-07-07 12:29:00,95.2,58.8,29.59,West,269,0.0,0.0,30,0.00,,,0.00,meteohub,2013-07-07 18:29:00,
2013-07-07 12:34:00,94.5,58.3,29.59,West,268,0.0,0.0,30,0.00,,,0.00,meteohub,2013-07-07 18:34:00,
2013-07-07 12:40:00,94.6,58.5,29.58,West,268,0.0,0.0,30,0.00,,,0.00,meteohub,2013-07-07 18:40:00,
2013-07-07 12:45:00,95.2,61.5,29.58,West,268,0.0,0.0,33,0.00,,,0.00,meteohub,2013-07-07 18:45:00,
2013-07-07 12:50:00,95.9,58.5,29.58,West,267,0.0,0.0,29,0.00,,,0.00,meteohub,2013-07-07 18:50:00,
2013-07-07 12:55:00,97.0,59.4,29.58,West,267,0.0,0.0,29,0.00,,,0.00,meteohub,2013-07-07 18:55:00,
2013-07-07 13:00:00,96.8,59.4,29.57,West,267,0.0,0.0,29,0.00,,,0.00,meteohub,2013-07-07 19:00:00,
2013-07-07 13:05:00,97.2,59.5,29.57,West,267,0.0,0.0,29,0.00,,,0.00,meteohub,2013-07-07 19:05:00,
2013-07-07 13:10:00,97.3,58.8,29.57,West,267,0.0,0.0,28,0.00,,,0.00,meteohub,2013-07-07 19:10:00,
2013-07-07 13:16:00,97.5,59.0,29.57,West,267,0.0,0.0,28,0.00,,,0.00,meteohub,2013-07-07 19:16:00,
2013-07-07 13:21:00,97.0,58.5,29.57,West,265,0.0,0.0,28,0.00,,,0.00,meteohub,2013-07-07 19:21:00,
2013-07-07 13:26:00,96.4,57.0,29.57,West,261,0.0,0.0,27,0.00,,,0.00,meteohub,2013-07-07 19:26:00,
2013-07-07 13:31:00,97.2,58.6,29.57,West,261,0.0,0.0,28,0.00,,,0.00,meteohub,2013-07-07 19:31:00,
2013-07-07 13:36:00,98.1,58.5,29.56,West,261,0.0,0.0,27,0.00,,,0.00,meteohub,2013-07-07 19:36:00,
2013-07-07 13:41:00,97.5,57.9,29.56,West,262,0.0,0.0,27,0.00,,,0.00,meteohub,2013-07-07 19:41:00,
2013-07-07 13:46:00,97.9,59.2,29.56,West,261,0.0,0.0,28,0.00,,,0.00,meteohub,2013-07-07 19:46:00,
2013-07-07 13:52:00,97.9,57.2,29.55,West,261,0.0,0.0,26,0.00,,,0.00,meteohub,2013-07-07 19:52:00,
2013-07-07 13:57:00,98.2,57.6,29.55,WSW,257,0.0,0.0,26,0.00,,,0.00,meteohub,2013-07-07 19:57:00,
2013-07-07 14:02:00,99.0,58.1,29.55,WSW,244,0.0,0.0,26,0.00,,,0.00,meteohub,2013-07-07 20:02:00,
2013-07-07 14:07:00,98.8,57.9,29.55,SW,214,0.0,0.0,26,0.00,,,0.00,meteohub,2013-07-07 20:07:00,
2013-07-07 14:12:00,99.3,58.5,29.56,SW,226,0.0,0.0,26,0.00,,,0.00,meteohub,2013-07-07 20:12:00,
2013-07-07 14:17:00,99.0,55.9,29.55,West,267,0.0,0.0,24,0.00,,,0.00,meteohub,2013-07-07 20:17:00,
2013-07-07 14:22:00,99.0,57.0,29.55,West,264,0.0,0.0,25,0.00,,,0.00,meteohub,2013-07-07 20:22:00,
2013-07-07 14:27:00,99.7,58.6,29.55,West,266,0.0,0.0,26,0.00,,,0.00,meteohub,2013-07-07 20:27:00,
2013-07-07 14:32:00,100.2,55.8,29.55,West,266,0.0,0.0,23,0.00,,,0.00,meteohub,2013-07-07 20:32:00,
2013-07-07 14:37:00,100.6,57.2,29.55,SSW,207,0.0,0.0,24,0.00,,,0.00,meteohub,2013-07-07 20:37:00,
2013-07-07 14:42:00,100.8,56.1,29.55,SSW,205,0.0,0.0,23,0.00,,,0.00,meteohub,2013-07-07 20:42:00,
2013-07-07 14:47:00,100.9,56.3,29.54,SSW,195,0.0,0.0,23,0.00,,,0.00,meteohub,2013-07-07 20:47:00,
2013-07-07 14:52:00,100.9,56.3,29.54,SSW,195,0.0,0.0,23,0.00,,,0.00,meteohub,2013-07-07 20:52:00,
2013-07-07 14:57:00,101.7,55.8,29.54,SSW,195,0.0,0.0,22,0.00,,,0.00,meteohub,2013-07-07 20:57:00,
2013-07-07 15:03:00,102.2,56.1,29.53,WSW,255,0.0,0.0,22,0.00,,,0.00,meteohub,2013-07-07 21:03:00,
2013-07-07 15:08:00,100.8,56.1,29.53,SW,217,0.0,0.0,23,0.00,,,0.00,meteohub,2013-07-07 21:08:00,
2013-07-07 15:13:00,100.6,57.2,29.53,SSW,211,0.0,0.0,24,0.00,,,0.00,meteohub,2013-07-07 21:13:00,
2013-07-07 15:18:00,100.8,56.1,29.52,WSW,246,0.0,0.0,23,0.00,,,0.00,meteohub,2013-07-07 21:18:00,
2013-07-07 15:24:00,101.1,56.5,29.52,SW,228,0.0,0.0,23,0.00,,,0.00,meteohub,2013-07-07 21:24:00,
2013-07-07 15:29:00,101.5,56.8,29.52,ENE,78,0.0,0.0,23,0.00,,,0.00,meteohub,2013-07-07 21:29:00,
2013-07-07 15:34:00,102.0,58.5,29.52,ENE,78,0.0,0.0,24,0.00,,,0.00,meteohub,2013-07-07 21:34:00,
2013-07-07 15:39:00,102.6,57.7,29.51,West,278,0.0,0.0,23,0.00,,,0.00,meteohub,2013-07-07 21:39:00,
2013-07-07 15:45:00,102.0,57.2,29.51,West,276,0.0,0.0,23,0.00,,,0.00,meteohub,2013-07-07 21:45:00,
2013-07-07 15:50:00,101.5,57.9,29.50,West,272,0.0,0.0,24,0.00,,,0.00,meteohub,2013-07-07 21:50:00,
2013-07-07 15:56:00,101.5,56.8,29.50,West,260,0.0,0.0,23,0.00,,,0.00,meteohub,2013-07-07 21:56:00,
2013-07-07 16:01:00,101.8,58.3,29.50,West,260,0.0,0.0,24,0.00,,,0.00,meteohub,2013-07-07 22:01:00,
2013-07-07 16:06:00,102.7,57.7,29.50,WSW,254,0.0,0.0,23,0.00,,,0.00,meteohub,2013-07-07 22:06:00,
2013-07-07 16:11:00,103.5,57.2,29.49,WSW,256,0.0,0.0,22,0.00,,,0.00,meteohub,2013-07-07 22:11:00,
2013-07-07 16:17:00,103.6,57.4,29.50,SE,128,0.0,0.0,22,0.00,,,0.00,meteohub,2013-07-07 22:17:00,
2013-07-07 16:22:00,102.9,56.7,29.49,West,265,0.0,0.0,22,0.00,,,0.00,meteohub,2013-07-07 22:22:00,
2013-07-07 16:27:00,102.4,56.3,29.49,East,83,0.0,0.0,22,0.00,,,0.00,meteohub,2013-07-07 22:27:00,
2013-07-07 16:32:00,101.7,55.8,29.49,ENE,72,0.0,0.0,22,0.00,,,0.00,meteohub,2013-07-07 22:32:00,
2013-07-07 16:37:00,100.8,56.1,29.49,East,86,0.0,0.0,23,0.00,,,0.00,meteohub,2013-07-07 22:37:00,
2013-07-07 16:42:00,100.0,54.3,29.49,East,90,0.0,0.0,22,0.00,,,0.00,meteohub,2013-07-07 22:42:00,
2013-07-07 16:47:00,99.7,55.2,29.49,East,90,0.0,0.0,23,0.00,,,0.00,meteohub,2013-07-07 22:47:00,
2013-07-07 16:52:00,99.5,56.3,29.50,East,90,0.0,0.0,24,0.00,,,0.00,meteohub,2013-07-07 22:52:00,
2013-07-07 16:57:00,99.1,54.9,29.49,SSW,202,0.0,0.0,23,0.00,,,0.00,meteohub,2013-07-07 22:57:00,
2013-07-07 17:02:00,98.8,54.5,29.49,SSW,201,0.0,0.0,23,0.00,,,0.00,meteohub,2013-07-07 23:02:00,
2013-07-07 17:08:00,98.6,54.3,29.49,SSW,200,0.0,0.0,23,0.00,,,0.00,meteohub,2013-07-07 23:08:00,
2013-07-07 17:13:00,98.8,55.8,29.49,SSW,200,0.0,0.0,24,0.00,,,0.00,meteohub,2013-07-07 23:13:00,
2013-07-07 17:18:00,98.8,54.5,29.49,SSW,202,0.0,0.0,23,0.00,,,0.00,meteohub,2013-07-07 23:18:00,
2013-07-07 17:23:00,98.4,55.4,29.49,SSW,202,0.0,0.0,24,0.00,,,0.00,meteohub,2013-07-07 23:23:00,
2013-07-07 17:28:00,98.6,55.6,29.49,SSW,202,0.0,0.0,24,0.00,,,0.00,meteohub,2013-07-07 23:28:00,
2013-07-07 17:33:00,98.8,55.8,29.49,SSW,202,0.0,0.0,24,0.00,,,0.00,meteohub,2013-07-07 23:33:00,
2013-07-07 17:38:00,98.4,56.5,29.49,ESE,112,0.0,0.0,25,0.00,,,0.00,meteohub,2013-07-07 23:38:00,
2013-07-07 17:44:00,97.9,56.1,29.49,East,92,0.0,0.0,25,0.00,,,0.00,meteohub,2013-07-07 23:44:00,
2013-07-07 17:49:00,97.5,55.8,29.49,East,101,0.0,0.0,25,0.00,,,0.00,meteohub,2013-07-07 23:49:00,
2013-07-07 17:54:00,97.5,55.8,29.48,East,86,0.0,0.0,25,0.00,,,0.00,meteohub,2013-07-07 23:54:00,
2013-07-07 17:59:00,97.5,55.8,29.49,ESE,114,0.0,0.0,25,0.00,,,0.00,meteohub,2013-07-07 23:59:00,
2013-07-07 18:04:00,97.5,55.8,29.48,ESE,111,0.0,0.0,25,0.00,,,0.00,meteohub,2013-07-08 00:04:00,
2013-07-07 18:09:00,97.3,55.6,29.49,SSW,208,0.0,0.0,25,0.00,,,0.00,meteohub,2013-07-08 00:09:00,
2013-07-07 18:14:00,97.3,55.6,29.49,East,89,0.0,0.0,25,0.00,,,0.00,meteohub,2013-07-08 00:14:00,
2013-07-07 18:20:00,97.3,55.6,29.49,East,94,0.0,0.0,25,0.00,,,0.00,meteohub,2013-07-08 00:20:00,
2013-07-07 18:25:00,97.2,55.4,29.49,South,182,0.0,0.0,25,0.00,,,0.00,meteohub,2013-07-08 00:25:00,
2013-07-07 18:30:00,97.0,56.5,29.50,South,189,0.0,0.0,26,0.00,,,0.00,meteohub,2013-07-08 00:30:00,
2013-07-07 18:35:00,97.0,56.5,29.50,ENE,65,0.0,0.0,26,0.00,,,0.00,meteohub,2013-07-08 00:35:00,
2013-07-07 18:40:00,96.4,55.9,29.50,ENE,78,0.0,0.0,26,0.00,,,0.00,meteohub,2013-07-08 00:40:00,
2013-07-07 18:45:00,96.4,54.9,29.50,East,86,0.0,0.0,25,0.00,,,0.00,meteohub,2013-07-08 00:45:00,
2013-07-07 18:50:00,96.3,54.7,29.50,East,92,0.0,0.0,25,0.00,,,0.00,meteohub,2013-07-08 00:50:00,
2013-07-07 18:55:00,96.3,54.7,29.50,East,95,0.0,0.0,25,0.00,,,0.00,meteohub,2013-07-08 00:55:00,
2013-07-07 19:01:00,96.3,55.8,29.51,East,82,0.0,0.0,26,0.00,,,0.00,meteohub,2013-07-08 01:01:00,
2013-07-07 19:06:00,95.9,55.6,29.51,ENE,75,0.0,0.0,26,0.00,,,0.00,meteohub,2013-07-08 01:06:00,
2013-07-07 19:11:00,95.7,55.4,29.51,East,79,0.0,0.0,26,0.00,,,0.00,meteohub,2013-07-08 01:11:00,
2013-07-07 19:16:00,95.5,54.1,29.51,East,86,0.0,0.0,25,0.00,,,0.00,meteohub,2013-07-08 01:16:00,
2013-07-07 19:21:00,95.5,55.2,29.51,East,92,0.0,0.0,26,0.00,,,0.00,meteohub,2013-07-08 01:21:00,
2013-07-07 19:26:00,95.5,54.1,29.51,East,96,0.0,0.0,25,0.00,,,0.00,meteohub,2013-07-08 01:26:00,
2013-07-07 19:32:00,95.4,55.0,29.52,East,80,0.0,0.0,26,0.00,,,0.00,meteohub,2013-07-08 01:32:00,
2013-07-07 19:37:00,95.2,54.9,29.52,East,90,0.0,0.0,26,0.00,,,0.00,meteohub,2013-07-08 01:37:00,
2013-07-07 19:42:00,94.6,55.4,29.51,East,88,0.0,0.0,27,0.00,,,0.00,meteohub,2013-07-08 01:42:00,
2013-07-07 19:47:00,94.5,55.4,29.52,East,88,0.0,0.0,27,0.00,,,0.00,meteohub,2013-07-08 01:47:00,
2013-07-07 19:52:00,94.3,54.1,29.52,ENE,77,0.0,0.0,26,0.00,,,0.00,meteohub,2013-07-08 01:52:00,
2013-07-07 19:57:00,94.5,54.3,29.52,East,93,0.0,0.0,26,0.00,,,0.00,meteohub,2013-07-08 01:57:00,
2013-07-07 20:02:00,94.6,53.4,29.52,East,98,0.0,0.0,25,0.00,,,0.00,meteohub,2013-07-08 02:02:00,
2013-07-07 20:08:00,94.5,54.3,29.52,East,84,0.0,0.0,26,0.00,,,0.00,meteohub,2013-07-08 02:08:00,
2013-07-07 20:13:00,94.3,54.1,29.52,East,99,0.0,0.0,26,0.00,,,0.00,meteohub,2013-07-08 02:13:00,
2013-07-07 20:18:00,93.9,53.8,29.53,East,95,0.0,0.0,26,0.00,,,0.00,meteohub,2013-07-08 02:18:00,
2013-07-07 20:23:00,93.7,54.7,29.53,ENE,74,0.0,0.0,27,0.00,,,0.00,meteohub,2013-07-08 02:23:00,
2013-07-07 20:28:00,93.6,54.5,29.53,ESE,112,0.0,0.0,27,0.00,,,0.00,meteohub,2013-07-08 02:28:00,
2013-07-07 20:33:00,93.6,54.5,29.53,East,95,0.0,0.0,27,0.00,,,0.00,meteohub,2013-07-08 02:33:00,
2013-07-07 20:38:00,93.6,53.6,29.54,East,96,0.0,0.0,26,0.00,,,0.00,meteohub,2013-07-08 02:38:00,
2013-07-07 20:44:00,93.6,54.5,29.54,East,90,0.0,0.0,27,0.00,,,0.00,meteohub,2013-07-08 02:44:00,
2013-07-07 20:49:00,93.6,53.6,29.55,East,87,0.0,0.0,26,0.00,,,0.00,meteohub,2013-07-08 02:49:00,
2013-07-07 20:54:00,93.6,53.6,29.55,ESE,105,0.0,0.0,26,0.00,,,0.00,meteohub,2013-07-08 02:54:00,
2013-07-07 20:59:00,93.6,53.6,29.55,East,97,0.0,0.0,26,0.00,,,0.00,meteohub,2013-07-08 02:59:00,
2013-07-07 21:04:00,93.4,53.4,29.55,East,84,0.0,0.0,26,0.00,,,0.00,meteohub,2013-07-08 03:04:00,
2013-07-07 21:09:00,93.4,53.4,29.55,East,88,0.0,0.0,26,0.00,,,0.00,meteohub,2013-07-08 03:09:00,
2013-07-07 21:15:00,93.0,53.1,29.55,ESE,113,0.0,0.0,26,0.00,,,0.00,meteohub,2013-07-08 03:15:00,
2013-07-07 21:20:00,93.0,53.1,29.56,East,98,0.0,0.0,26,0.00,,,0.00,meteohub,2013-07-08 03:20:00,
2013-07-07 21:25:00,92.8,52.9,29.56,East,81,0.0,0.0,26,0.00,,,0.00,meteohub,2013-07-08 03:25:00,
2013-07-07 21:30:00,92.7,51.6,29.56,ESE,108,0.0,0.0,25,0.00,,,0.00,meteohub,2013-07-08 03:30:00,
2013-07-07 21:35:00,92.5,51.6,29.57,ESE,119,0.0,0.0,25,0.00,,,0.00,meteohub,2013-07-08 03:35:00,
2013-07-07 21:40:00,92.5,51.6,29.57,East,90,0.0,0.0,25,0.00,,,0.00,meteohub,2013-07-08 03:40:00,
2013-07-07 21:46:00,92.1,51.3,29.57,ESE,105,0.0,0.0,25,0.00,,,0.00,meteohub,2013-07-08 03:46:00,
2013-07-07 21:51:00,91.9,51.1,29.58,ESE,113,0.0,0.0,25,0.00,,,0.00,meteohub,2013-07-08 03:51:00,
2013-07-07 21:56:00,91.9,51.1,29.58,East,92,0.0,0.0,25,0.00,,,0.00,meteohub,2013-07-08 03:56:00,
2013-07-07 22:01:00,91.8,52.0,29.58,ENE,74,0.0,0.0,26,0.00,,,0.00,meteohub,2013-07-08 04:01:00,
2013-07-07 22:02:00,91.8,52.0,29.58,ESE,116,0.0,0.0,26,0.00,,,0.00,meteohub,2013-07-08 04:02:00,
2013-07-07 22:03:00,91.6,51.8,29.58,East,101,0.0,0.0,26,0.00,,,0.00,meteohub,2013-07-08 04:03:00,
2013-07-07 22:04:00,91.6,51.8,29.58,ESE,105,0.0,0.0,26,0.00,,,0.00,meteohub,2013-07-08 04:04:00,
2013-07-07 22:09:00,91.2,51.6,29.59,East,90,0.0,0.0,26,0.00,,,0.00,meteohub,2013-07-08 04:09:00,
2013-07-07 22:15:00,91.0,51.4,29.59,East,92,0.0,0.0,26,0.00,,,0.00,meteohub,2013-07-08 04:15:00,
2013-07-07 22:20:00,90.9,52.3,29.59,East,81,0.0,0.0,27,0.00,,,0.00,meteohub,2013-07-08 04:20:00,
2013-07-07 22:25:00,90.7,51.1,29.59,SSE,153,0.0,0.0,26,0.00,,,0.00,meteohub,2013-07-08 04:25:00,
2013-07-07 22:30:00,90.3,51.8,29.59,ENE,65,0.0,0.0,27,0.00,,,0.00,meteohub,2013-07-08 04:30:00,
2013-07-07 22:35:00,90.1,50.5,29.59,East,94,0.0,0.0,26,0.00,,,0.00,meteohub,2013-07-08 04:35:00,
2013-07-07 22:40:00,90.0,51.4,29.59,SE,140,0.0,0.0,27,0.00,,,0.00,meteohub,2013-07-08 04:40:00,
2013-07-07 22:45:00,89.4,51.1,29.59,East,90,0.0,0.0,27,0.00,,,0.00,meteohub,2013-07-08 04:45:00,
2013-07-07 22:51:00,89.4,51.1,29.60,East,84,0.0,0.0,27,0.00,,,0.00,meteohub,2013-07-08 04:51:00,
2013-07-07 22:56:00,89.2,50.9,29.60,ESE,111,0.0,0.0,27,0.00,,,0.00,meteohub,2013-07-08 04:56:00,
2013-07-07 23:01:00,89.2,50.9,29.60,ESE,121,0.0,0.0,27,0.00,,,0.00,meteohub,2013-07-08 05:01:00,
2013-07-07 23:06:00,89.1,50.7,29.60,ESE,107,0.0,0.0,27,0.00,,,0.00,meteohub,2013-07-08 05:06:00,
2013-07-07 23:11:00,88.9,50.5,29.60,ESE,123,0.0,0.0,27,0.00,,,0.00,meteohub,2013-07-08 05:11:00,
2013-07-07 23:16:00,88.9,50.5,29.61,East,101,0.0,0.0,27,0.00,,,0.00,meteohub,2013-07-08 05:16:00,
2013-07-07 23:21:00,88.7,50.4,29.61,ESE,105,0.0,0.0,27,0.00,,,0.00,meteohub,2013-07-08 05:21:00,
2013-07-07 23:27:00,88.5,50.4,29.61,SE,124,0.0,0.0,27,0.00,,,0.00,meteohub,2013-07-08 05:27:00,
2013-07-07 23:32:00,88.3,51.1,29.61,East,94,0.0,0.0,28,0.00,,,0.00,meteohub,2013-07-08 05:32:00,
2013-07-07 23:37:00,88.2,50.9,29.61,South,172,0.0,0.0,28,0.00,,,0.00,meteohub,2013-07-08 05:37:00,
2013-07-07 23:42:00,88.0,50.7,29.61,SSW,213,0.0,0.0,28,0.00,,,0.00,meteohub,2013-07-08 05:42:00,
2013-07-07 23:47:00,87.8,50.7,29.61,SSW,202,0.0,0.0,28,0.00,,,0.00,meteohub,2013-07-08 05:47:00,
2013-07-07 23:52:00,87.6,51.4,29.61,SSW,199,0.0,0.0,29,0.00,,,0.00,meteohub,2013-07-08 05:52:00,
2013-07-07 23:57:00,87.4,51.3,29.61,ESE,110,0.0,0.0,29,0.00,,,0.00,meteohub,2013-07-08 05:57:00,